Location: Fauquembergues
(50.6005°N, 2.0987°E)
Time: 10:47:41
(UTC+00:00)

ADEOS II - Pass Details

Date: 14 July 2020
Orbit: 799 x 801 km, 98.5° (Epoch: 05 August)

Event Time Altitude Azimuth Distance (km) Brightness Sun altitude
Rises 01:16:42 0° 23° (NNE) 3,323 7.2 -15.7°
Reaches altitude 10° 01:19:27 10° 37° (NE) 2,387 5.8 -15.5°
Maximum altitude 01:23:46 25° 92° (E) 1,565 3.8 -15.3°
Drops below altitude 10° 01:28:04 10° 147° (SSE) 2,371 4.2 -15.1°
Enters shadow 01:28:37 - 151° (SSE) 2,549 4.3 -15.0°
